Regional Weather Roundup
Issued by NWS Bismarck, ND

Home | Current Version | Previous Version | Text Only | Print | Product List | Glossary On
Versions: 1 2 3 4 5 6 7 8 9 10 11 12 13 14 15 16 17 18 19 20 21 22 23 24 25 26 27 28 29 30 31 32 33 34 35 36 37 38 39 40 41 42 43 44 45 46 47 48 49 50
000
ASUS43 KBIS 261210
RWRBIS

NWR BROADCAST TEXT
NATIONAL WEATHER SERVICE BISMARCK ND
700 AM CDT TUE JUL 26 2016

NOTE: "FAIR" INDICATES FEW OR NO CLOUDS BELOW 12,000 FEET WITH NO
SIGNIFICANT WEATHER AND/OR OBSTRUCTIONS TO VISIBILITY.


CITY           SKY/WX    TMP DP  RH WIND       PRES   REMARKS
WILLISTON      CLEAR     64  59  83 N9        30.03R
MINOT          CLEAR     65  61  87 W3        30.00S
MINOT AFB      CLEAR     62  60  93 N3        30.00R
BISMARCK       CLEAR     69  67  93 NE8       29.96R
DICKINSON      CLOUDY    64  63  96 NE7       30.00R
GARRISON         N/A     67  65  93 E5        29.99S
HETTINGER ARPT CLOUDY    68  65  90 NE9       29.99F
JAMESTOWN      CLOUDY    68  67  96 N7        29.97R
CARRINGTON     FAIR      64  63  94 CALM      30.02R
HAZEN          FAIR      64  64 100 NE5       30.00S
LINTON         FAIR      70  66  88 SE8       29.96S
MANDAN         FAIR      68  66  94 NE9       29.98R
OAKES            N/A    N/A N/A N/A MISG        N/A
STANLEY        FAIR      61  61 100 N9        30.06R
WATFORD CITY     N/A    N/A N/A N/A MISG        N/A
$$

CITY           SKY/WX    TMP DP  RH WIND       PRES   REMARKS
GRAND FORKS    CLOUDY    67  64  90 N6        29.93R
GRAND FORKS AF CLOUDY    65  65  99 N5        29.94S
DEVILS LAKE    CLEAR     63  62  97 N5        29.99S
FARGO          CLOUDY    72  61  68 SW8       29.95R
CAVALIER       FAIR      64  64 100 W5        29.97R
GRAFTON        FAIR      64  64 100 NW5       29.96S
GWINNER        FAIR      72  63  73 SW14      29.96F
LANGDON        FAIR      63  63 100 CALM      30.00S
ROLLA          FAIR      59  59 100 N6        30.03S
$$

CITY           SKY/WX    TMP DP  RH WIND       PRES   REMARKS
ABERDEEN       MOCLDY    66  60  81 SE6       30.01S
MOBRIDGE       CLEAR     73  63  70 SE5       29.92S
BUFFALO          N/A     68  61  78 W25G38    30.07R
RAPID CITY     CLOUDY    65  61  87 S8        29.98F
GLASGOW        MOCLDY    64  59  83 E13       30.02S
SIDNEY         CLOUDY    68  62  81 NW8       30.05R
WOLF POINT     CLOUDY    66  62  87 E6        30.05S
GLENDIVE       RAIN      64  60  87 W12       30.13R
MILES CITY     CLOUDY    66  60  81 NE28G37   29.96R
BAKER          LGT RAIN  64  61  90 NW26      30.16R
$$

CITY           SKY/WX    TMP DP  RH WIND       PRES   REMARKS
BILLINGS       PTCLDY    66  50  56 SW8       30.06S
GREAT FALLS    CLEAR     53  47  79 SW9       30.08S
REGINA         PTCLDY    54  52  94 S2        30.09R
ESTEVAN        PTCLDY    59  59 100 CALM      30.07R
$$





USA.gov is the U.S. government's official web portal to all federal, state and local government web resources and services.